Tracking 26325 objects as of 29-Nov-2022
HD Live streaming from Space Station
objects crossing your sky now

COSMOS 1375 DEB

Track COSMOS 1375 DEB now!
10-day predictions


NORAD ID: 19453
Int'l Code: 1982-055BL
Perigee: 763.6 km
Apogee: 832.2 km
Inclination: 65.8 °
Period: 100.7 minutes
Semi major axis: 7168 km
RCS: 0.0034 m2 (small)
Launch date: June 6, 1982
Source: Commonwealth of Independent States (former USSR) (CIS)
Launch site: PLESETSK MISSILE AND SPACE COMPLEX (PKMTR)

Note: This is SATELLITE DEBRIS
aabbcc
Your satellite tracking list
Your tracking list is empty




NASA's NSSDC Master Catalog

Two Line Element Set (TLE):
1 19453U 82055BL  22332.09024047  .00001721  00000-0  68907-3 0  9994
2 19453  65.8062 272.2081 0047839  57.8094 316.8438 14.30293556785884
Source of the keplerian elements: AFSPC